�������l�o���
Date,Time,MP-1(��Sv/h),MP-2(��Sv/h),MP-3(��Sv/h),MP-4(��Sv/h),MP-5(��Sv/h),MP-6(��Sv/h),MP-7(��Sv/h),MP-8(��Sv/h),����,����(m/s),���J
2021/02/21,00:00,0.655,0.948,0.604,1.190,0.836,0.380,0.667,0.625,���쐼,5.3,��
2021/02/21,00:10,0.653,0.947,0.603,1.190,0.838,0.381,0.669,0.625,���쐼,3.3,��
2021/02/21,00:20,0.653,0.945,0.605,1.189,0.838,0.380,0.669,0.623,���쐼,3.4,��
2021/02/21,00:30,0.657,0.947,0.602,1.189,0.837,0.380,0.669,0.624,���쐼,1.4,��
2021/02/21,00:40,0.656,0.947,0.604,1.188,0.837,0.381,0.669,0.625,��,2.5,��
2021/02/21,00:50,0.654,0.947,0.602,1.191,0.838,0.381,0.668,0.625,��,2.6,��
2021/02/21,01:00,0.654,0.948,0.603,1.189,0.836,0.379,0.669,0.623,��,1.8,��
2021/02/21,01:10,0.655,0.947,0.603,1.189,0.837,0.381,0.667,0.625,��,3.2,��
2021/02/21,01:20,0.653,0.947,0.600,1.189,0.838,0.379,0.667,0.625,��쐼,2.6,��
2021/02/21,01:30,0.654,0.947,0.605,1.189,0.836,0.380,0.668,0.624,�쐼,2.2,��
2021/02/21,01:40,0.653,0.946,0.602,1.189,0.838,0.379,0.667,0.624,��,2.0,��
2021/02/21,01:50,0.655,0.948,0.602,1.189,0.837,0.379,0.668,0.623,��,3.2,��
2021/02/21,02:00,0.654,0.948,0.604,1.186,0.836,0.381,0.668,0.624,���k��,4.6,��
2021/02/21,02:10,0.654,0.949,0.603,1.188,0.836,0.380,0.667,0.623,���k��,5.6,��
2021/02/21,02:20,0.654,0.946,0.603,1.190,0.838,0.379,0.668,0.623,���k��,6.0,��
2021/02/21,02:30,0.654,0.948,0.602,1.188,0.838,0.380,0.666,0.625,���k��,6.9,��
2021/02/21,02:40,0.654,0.949,0.602,1.187,0.837,0.379,0.669,0.623,���k��,7.9,��
2021/02/21,02:50,0.654,0.949,0.602,1.187,0.838,0.378,0.669,0.624,���k��,6.0,��
2021/02/21,03:00,0.653,0.949,0.602,1.190,0.839,0.379,0.669,0.624,���k��,6.4,��
2021/02/21,03:10,0.653,0.948,0.601,1.190,0.838,0.381,0.666,0.624,���k��,7.4,��
2021/02/21,03:20,0.656,0.949,0.602,1.189,0.839,0.379,0.667,0.625,���k��,5.5,��
2021/02/21,03:30,0.654,0.948,0.603,1.190,0.838,0.378,0.668,0.623,���k��,4.2,��
2021/02/21,03:40,0.653,0.948,0.602,1.188,0.836,0.380,0.667,0.626,�k��,4.9,��
2021/02/21,03:50,0.653,0.948,0.603,1.190,0.837,0.378,0.669,0.624,�k��,3.8,��
2021/02/21,04:00,0.655,0.946,0.603,1.188,0.837,0.380,0.667,0.625,���k��,4.7,��
2021/02/21,04:10,0.654,0.948,0.605,1.188,0.836,0.380,0.666,0.622,��,4.5,��
2021/02/21,04:20,0.653,0.948,0.600,1.188,0.837,0.379,0.667,0.624,���쐼,4.6,��
2021/02/21,04:30,0.652,0.947,0.603,1.189,0.836,0.379,0.667,0.624,��,4.4,��
2021/02/21,04:40,0.653,0.949,0.602,1.189,0.835,0.380,0.666,0.624,��,3.7,��
2021/02/21,04:50,0.654,0.947,0.603,1.190,0.835,0.379,0.667,0.622,���k��,5.2,��
2021/02/21,05:00,0.654,0.947,0.602,1.189,0.836,0.379,0.667,0.624,�k��,4.5,��
2021/02/21,05:10,0.653,0.943,0.602,1.189,0.836,0.380,0.669,0.623,�k��,4.2,��
2021/02/21,05:20,0.651,0.947,0.602,1.187,0.836,0.378,0.667,0.624,���k��,3.3,��
2021/02/21,05:30,0.651,0.948,0.600,1.188,0.835,0.380,0.667,0.624,���쐼,1.9,��
2021/02/21,05:40,0.654,0.943,0.602,1.189,0.836,0.378,0.666,0.624,�쐼,1.7,��
2021/02/21,05:50,0.653,0.949,0.602,1.190,0.839,0.378,0.666,0.624,�쐼,1.7,��
2021/02/21,06:00,0.653,0.945,0.599,1.187,0.836,0.380,0.666,0.623,��,2.5,��
2021/02/21,06:10,0.653,0.946,0.602,1.188,0.835,0.380,0.668,0.623,��,2.9,��
2021/02/21,06:20,0.654,0.948,0.602,1.188,0.837,0.379,0.667,0.624,��,3.3,��
2021/02/21,06:30,0.652,0.947,0.599,1.190,0.835,0.380,0.667,0.623,��쐼,3.7,��
2021/02/21,06:40,0.653,0.947,0.600,1.188,0.836,0.379,0.666,0.623,��쐼,4.1,��
2021/02/21,06:50,0.651,0.947,0.601,1.191,0.838,0.378,0.666,0.624,��쐼,2.6,��
2021/02/21,07:00,0.653,0.947,0.602,1.190,0.836,0.379,0.666,0.624,��쐼,2.0,��
2021/02/21,07:10,0.654,0.946,0.601,1.188,0.835,0.379,0.667,0.624,��쓌,3.5,��
2021/02/21,07:20,0.655,0.946,0.600,1.191,0.837,0.378,0.668,0.621,��쓌,5.2,��
2021/02/21,07:30,0.653,0.947,0.600,1.188,0.837,0.379,0.667,0.624,��,5.7,��
2021/02/21,07:40,0.651,0.948,0.601,1.191,0.836,0.380,0.668,0.625,��쐼,5.9,��
2021/02/21,07:50,0.654,0.949,0.604,1.190,0.835,0.379,0.667,0.623,��쐼,6.7,��
2021/02/21,08:00,0.654,0.949,0.602,1.190,0.836,0.379,0.668,0.625,��쐼,7.5,��
2021/02/21,08:10,0.658,0.948,0.603,1.190,0.836,0.380,0.669,0.623,��,6.5,��
2021/02/21,08:20,0.655,0.946,0.605,1.190,0.837,0.380,0.668,0.624,��,6.4,��
2021/02/21,08:30,0.654,0.949,0.603,1.190,0.836,0.379,0.669,0.625,��,7.5,��
2021/02/21,08:40,0.657,0.950,0.604,1.188,0.835,0.380,0.669,0.624,��,8.8,��
2021/02/21,08:50,0.656,0.948,0.603,1.190,0.838,0.382,0.670,0.625,��,9.0,��
2021/02/21,09:00,0.657,0.950,0.603,1.189,0.837,0.380,0.668,0.624,��,6.6,��
2021/02/21,09:10,0.656,0.947,0.605,1.191,0.839,0.379,0.668,0.625,��,8.2,��
2021/02/21,09:20,0.658,0.947,0.603,1.189,0.838,0.380,0.667,0.625,��,9.1,��
2021/02/21,09:30,0.659,0.946,0.604,1.191,0.838,0.382,0.666,0.625,��,9.2,��
2021/02/21,09:40,0.657,0.947,0.604,1.192,0.838,0.381,0.668,0.626,��쓌,11.3,��
2021/02/21,09:50,0.657,0.947,0.603,1.191,0.838,0.380,0.666,0.626,��,9.1,��
2021/02/21,10:00,0.657,0.945,0.605,1.191,0.839,0.380,0.666,0.626,��,7.8,��
2021/02/21,10:10,0.655,0.949,0.604,1.191,0.840,0.380,0.665,0.625,��,8.0,��
2021/02/21,10:20,0.656,0.948,0.605,1.193,0.839,0.380,0.666,0.624,��쐼,6.6,��
2021/02/21,10:30,0.657,0.949,0.603,1.193,0.839,0.379,0.666,0.625,��쐼,3.2,��
2021/02/21,10:40,0.655,0.947,0.604,1.191,0.837,0.379,0.667,0.625,���쐼,6.8,��
2021/02/21,10:50,0.656,0.948,0.605,1.191,0.837,0.381,0.667,0.624,��,6.7,��
2021/02/21,11:00,0.656,0.948,0.605,1.193,0.839,0.380,0.667,0.624,���쐼,7.3,��
2021/02/21,11:10,0.656,0.947,0.607,1.190,0.838,0.381,0.667,0.623,���쐼,8.6,��
2021/02/21,11:20,0.657,0.948,0.606,1.192,0.839,0.381,0.668,0.625,���쐼,10.6,��
2021/02/21,11:30,0.657,0.948,0.606,1.193,0.839,0.380,0.670,0.622,���쐼,7.3,��
2021/02/21,11:40,0.655,0.948,0.605,1.193,0.839,0.380,0.669,0.624,���쐼,9.6,��
2021/02/21,11:50,0.658,0.949,0.604,1.193,0.839,0.380,0.668,0.622,���쐼,9.6,��
2021/02/21,12:00,0.657,0.948,0.603,1.191,0.839,0.379,0.669,0.623,���쐼,11.3,��
2021/02/21,12:10,0.656,0.949,0.603,1.194,0.839,0.381,0.669,0.624,���쐼,12.7,��
2021/02/21,12:20,0.657,0.948,0.602,1.196,0.838,0.381,0.669,0.623,��,12.4,��
2021/02/21,12:30,0.656,0.949,0.601,1.192,0.838,0.381,0.668,0.624,���쐼,10.0,��
2021/02/21,12:40,0.656,0.947,0.604,1.193,0.838,0.382,0.671,0.622,��,10.9,��
2021/02/21,12:50,0.655,0.949,0.602,1.193,0.839,0.383,0.669,0.623,��,9.3,��
2021/02/21,13:00,0.657,0.948,0.601,1.192,0.840,0.383,0.671,0.624,��,11.0,��
2021/02/21,13:10,0.659,0.949,0.603,1.193,0.840,0.382,0.669,0.623,��,11.4,��
2021/02/21,13:20,0.657,0.950,0.604,1.193,0.840,0.382,0.668,0.624,��,9.2,��
2021/02/21,13:30,0.658,0.952,0.604,1.193,0.840,0.382,0.670,0.624,���쐼,10.3,��
2021/02/21,13:40,0.657,0.948,0.602,1.192,0.839,0.382,0.669,0.622,��,10.8,��
2021/02/21,13:50,0.658,0.949,0.603,1.194,0.839,0.381,0.669,0.624,���k��,9.3,��
2021/02/21,14:00,0.656,0.951,0.604,1.193,0.841,0.381,0.668,0.622,��,10.8,��
2021/02/21,14:10,0.658,0.950,0.604,1.194,0.840,0.382,0.671,0.624,��,7.7,��
2021/02/21,14:20,0.657,0.948,0.603,1.194,0.838,0.382,0.669,0.625,��,10.2,��
2021/02/21,14:30,0.656,0.950,0.604,1.196,0.839,0.382,0.667,0.623,���k��,10.5,��
2021/02/21,14:40,0.657,0.948,0.605,1.195,0.841,0.382,0.669,0.623,��,10.5,��
2021/02/21,14:50,0.656,0.952,0.602,1.196,0.838,0.382,0.671,0.622,���k��,9.7,��
2021/02/21,15:00,0.657,0.950,0.605,1.196,0.841,0.382,0.670,0.624,��,9.3,��
2021/02/21,15:10,0.657,0.951,0.604,1.195,0.840,0.382,0.668,0.623,��,8.9,��
2021/02/21,15:20,0.657,0.950,0.604,1.194,0.840,0.381,0.669,0.623,��,9.7,��
2021/02/21,15:30,0.656,0.950,0.602,1.195,0.839,0.382,0.669,0.624,��,8.0,��
2021/02/21,15:40,0.657,0.950,0.605,1.194,0.839,0.380,0.670,0.622,��,8.2,��
2021/02/21,15:50,0.657,0.952,0.602,1.196,0.842,0.381,0.668,0.624,��,9.6,��
2021/02/21,16:00,0.655,0.951,0.603,1.194,0.841,0.383,0.668,0.624,��,7.1,��
2021/02/21,16:10,0.656,0.952,0.603,1.196,0.842,0.380,0.668,0.623,���k��,7.4,��
2021/02/21,16:20,0.656,0.952,0.603,1.195,0.839,0.380,0.670,0.623,��,7.6,��
2021/02/21,16:30,0.655,0.953,0.604,1.196,0.841,0.382,0.667,0.623,��,7.6,��
2021/02/21,16:40,0.656,0.951,0.604,1.196,0.841,0.382,0.669,0.625,��,6.7,��
2021/02/21,16:50,0.655,0.951,0.604,1.196,0.840,0.382,0.669,0.625,��,7.6,��
2021/02/21,17:00,0.656,0.950,0.600,1.195,0.840,0.382,0.670,0.625,��,6.3,��
2021/02/21,17:10,0.656,0.953,0.603,1.196,0.839,0.383,0.668,0.625,���k��,9.1,��
2021/02/21,17:20,0.656,0.954,0.603,1.197,0.838,0.382,0.668,0.626,���k��,9.4,��
2021/02/21,17:30,0.658,0.954,0.606,1.198,0.838,0.381,0.669,0.626,���k��,10.5,��
2021/02/21,17:40,0.657,0.955,0.605,1.196,0.841,0.381,0.668,0.626,���k��,8.9,��
2021/02/21,17:50,0.659,0.953,0.606,1.195,0.841,0.383,0.670,0.626,��,8.3,��
2021/02/21,18:00,0.659,0.955,0.606,1.196,0.841,0.382,0.667,0.627,��,6.8,��
2021/02/21,18:10,0.659,0.954,0.606,1.194,0.842,0.383,0.668,0.626,��,7.0,��
2021/02/21,18:20,0.657,0.954,0.605,1.197,0.841,0.382,0.668,0.625,��,7.9,��
2021/02/21,18:30,0.658,0.954,0.606,1.197,0.843,0.382,0.667,0.625,���쐼,4.6,��
2021/02/21,18:40,0.657,0.953,0.607,1.196,0.842,0.381,0.668,0.626,���쐼,4.0,��
2021/02/21,18:50,0.658,0.951,0.605,1.196,0.842,0.381,0.670,0.627,�쐼,3.0,��
2021/02/21,19:00,0.658,0.952,0.604,1.197,0.842,0.381,0.669,0.626,���쐼,3.8,��
2021/02/21,19:10,0.657,0.953,0.606,1.197,0.840,0.381,0.671,0.625,�쐼,3.4,��
2021/02/21,19:20,0.656,0.952,0.605,1.196,0.842,0.381,0.671,0.625,���쐼,2.3,��
2021/02/21,19:30,0.658,0.951,0.604,1.196,0.841,0.383,0.669,0.625,��쐼,3.3,��
2021/02/21,19:40,0.658,0.951,0.605,1.196,0.843,0.381,0.670,0.625,��쐼,4.2,��
2021/02/21,19:50,0.657,0.953,0.608,1.197,0.840,0.381,0.669,0.626,�쐼,3.2,��
2021/02/21,20:00,0.657,0.953,0.605,1.195,0.840,0.382,0.670,0.626,�쐼,2.6,��
2021/02/21,20:10,0.658,0.953,0.605,1.197,0.841,0.382,0.670,0.626,�쐼,3.6,��
2021/02/21,20:20,0.658,0.953,0.605,1.195,0.840,0.382,0.669,0.625,�쐼,3.9,��
2021/02/21,20:30,0.658,0.953,0.605,1.195,0.842,0.380,0.670,0.626,�쐼,3.6,��
2021/02/21,20:40,0.657,0.952,0.604,1.196,0.841,0.381,0.669,0.624,�쐼,4.3,��
2021/02/21,20:50,0.659,0.951,0.605,1.194,0.841,0.382,0.671,0.624,�쐼,5.0,��
2021/02/21,21:00,0.658,0.954,0.605,1.196,0.842,0.380,0.670,0.626,���쐼,5.6,��
2021/02/21,21:10,0.658,0.951,0.605,1.196,0.841,0.380,0.670,0.625,�쐼,6.8,��
2021/02/21,21:20,0.658,0.951,0.602,1.197,0.842,0.381,0.670,0.625,���쐼,7.7,��
2021/02/21,21:30,0.658,0.952,0.604,1.197,0.843,0.382,0.672,0.625,���쐼,7.9,��
2021/02/21,21:40,0.658,0.951,0.605,1.196,0.843,0.381,0.671,0.625,���쐼,8.6,��
2021/02/21,21:50,0.659,0.953,0.605,1.195,0.843,0.380,0.671,0.625,���쐼,8.8,��
2021/02/21,22:00,0.658,0.954,0.604,1.198,0.843,0.382,0.669,0.626,���쐼,8.6,��
2021/02/21,22:10,0.658,0.953,0.605,1.198,0.840,0.381,0.669,0.626,���쐼,9.3,��
2021/02/21,22:20,0.659,0.952,0.607,1.196,0.843,0.381,0.670,0.626,���쐼,9.2,��
2021/02/21,22:30,0.657,0.951,0.604,1.197,0.842,0.380,0.671,0.626,��,8.6,��
2021/02/21,22:40,0.658,0.952,0.605,1.197,0.841,0.380,0.670,0.626,��,8.5,��
2021/02/21,22:50,0.657,0.952,0.606,1.197,0.841,0.382,0.671,0.625,��,8.3,��
2021/02/21,23:00,0.659,0.954,0.604,1.195,0.842,0.381,0.670,0.672,���쐼,6.0,��
2021/02/21,23:10,0.658,0.953,0.606,1.194,0.840,0.381,0.671,0.625,���쐼,4.6,��
2021/02/21,23:20,0.658,0.951,0.605,1.194,0.839,0.380,0.670,0.624,���쐼,3.3,��
2021/02/21,23:30,0.658,0.953,0.605,1.198,0.838,0.381,0.670,0.625,���쐼,4.6,��
2021/02/21,23:40,0.658,0.951,0.605,1.196,0.841,0.381,0.670,0.626,���쐼,5.4,��
2021/02/21,23:50,0.658,0.952,0.606,1.193,0.842,0.382,0.669,0.624,���쐼,6.1,��
